Hourly Weather Taba

Today, 7 August, Friday

Time Temperature Precipitation Wind Pressure Humidity
00:00 +22°C° 0 mm 3 mps 690 mmHg 53%
01:00 +21°C° 0 mm 2 mps 689 mmHg 52%
02:00 +21°C° 0 mm 2 mps 689 mmHg 50%
03:00 +20°C° 0 mm 2 mps 689 mmHg 48%
04:00 +21°C° 0 mm 1 mps 689 mmHg 46%
05:00 +20°C° 0 mm 1 mps 689 mmHg 43%
06:00 +24°C° 0 mm 1 mps 690 mmHg 35%
07:00 +27°C° 0 mm 1 mps 690 mmHg 27%
08:00 +30°C° 0 mm 2 mps 691 mmHg 20%
09:00 +32°C° 0 mm 2 mps 691 mmHg 17%
10:00 +35°C° 0 mm 3 mps 691 mmHg 15%
11:00 +37°C° 0 mm 4 mps 692 mmHg 12%
12:00 +39°C° 0 mm 5 mps 691 mmHg 11%
13:00 +39°C° 0 mm 5 mps 691 mmHg 11%
14:00 +40°C° 0 mm 6 mps 691 mmHg 10%
15:00 +40°C° 0 mm 6 mps 690 mmHg 11%
16:00 +39°C° 0 mm 7 mps 690 mmHg 13%
17:00 +38°C° 0 mm 8 mps 690 mmHg 14%
18:00 +34°C° 0 mm 7 mps 690 mmHg 21%
19:00 +32°C° 0 mm 7 mps 690 mmHg 28%
20:00 +28°C° 0 mm 6 mps 690 mmHg 35%
21:00 +27°C° 0 mm 5 mps 690 mmHg 43%
22:00 +25°C° 0 mm 5 mps 690 mmHg 51%
23:00 +23°C° 0 mm 4 mps 690 mmHg 59%

Tomorrow, 8 August, Saturday

Time Temperature Precipitation Wind Pressure Humidity
00:00 +22°C° 0 mm 3 mps 689 mmHg 62%
01:00 +22°C° 0 mm 3 mps 689 mmHg 64%
02:00 +21°C° 0 mm 3 mps 688 mmHg 67%
03:00 +21°C° 0 mm 3 mps 689 mmHg 70%
04:00 +21°C° 0 mm 3 mps 689 mmHg 74%
05:00 +20°C° 0 mm 2 mps 689 mmHg 77%
06:00 +24°C° 0 mm 3 mps 689 mmHg 65%
07:00 +26°C° 0 mm 3 mps 690 mmHg 53%
08:00 +29°C° 0 mm 3 mps 690 mmHg 41%
09:00 +33°C° 0 mm 4 mps 691 mmHg 33%
10:00 +35°C° 0 mm 5 mps 691 mmHg 26%
11:00 +39°C° 0 mm 6 mps 691 mmHg 19%
12:00 +39°C° 0 mm 7 mps 691 mmHg 18%
13:00 +40°C° 0 mm 8 mps 690 mmHg 16%
14:00 +42°C° 0 mm 9 mps 690 mmHg 15%
15:00 +40°C° 0 mm 9 mps 690 mmHg 15%
16:00 +39°C° 0 mm 10 mps 689 mmHg 15%
17:00 +39°C° 0 mm 10 mps 689 mmHg 14%
18:00 +35°C° 0 mm 9 mps 689 mmHg 22%
19:00 +32°C° 0 mm 7 mps 689 mmHg 29%
20:00 +28°C° 0 mm 6 mps 689 mmHg 36%
21:00 +27°C° 0 mm 5 mps 689 mmHg 42%
22:00 +26°C° 0 mm 4 mps 689 mmHg 47%
23:00 +24°C° 0 mm 3 mps 689 mmHg 53%

Day after tomorrow, 9 August, Sunday

Time Temperature Precipitation Wind Pressure Humidity
00:00 +24°C° 0 mm 3 mps 689 mmHg 51%
01:00 +24°C° 0 mm 2 mps 688 mmHg 49%
02:00 +24°C° 0 mm 2 mps 688 mmHg 48%
03:00 +23°C° 0 mm 2 mps 688 mmHg 46%
04:00 +23°C° 0 mm 2 mps 688 mmHg 44%
05:00 +23°C° 0 mm 2 mps 688 mmHg 41%
06:00 +26°C° 0 mm 3 mps 688 mmHg 34%
07:00 +29°C° 0 mm 4 mps 689 mmHg 27%
08:00 +33°C° 0 mm 4 mps 690 mmHg 19%
09:00 +34°C° 0 mm 5 mps 690 mmHg 17%
10:00 +36°C° 0 mm 6 mps 690 mmHg 15%
11:00 +39°C° 0 mm 7 mps 690 mmHg 13%
12:00 +39°C° 0 mm 8 mps 690 mmHg 13%
13:00 +40°C° 0 mm 9 mps 690 mmHg 13%
14:00 +40°C° 0 mm 9 mps 690 mmHg 13%
15:00 +39°C° 0 mm 9 mps 689 mmHg 15%
16:00 +38°C° 0 mm 9 mps 689 mmHg 17%
17:00 +37°C° 0 mm 10 mps 689 mmHg 20%
18:00 +34°C° 0 mm 8 mps 689 mmHg 24%
19:00 +32°C° 0 mm 5 mps 689 mmHg 28%
20:00 +28°C° 0 mm 3 mps 689 mmHg 32%
21:00 +27°C° 0 mm 3 mps 689 mmHg 39%
22:00 +25°C° 0 mm 3 mps 689 mmHg 46%
23:00 +24°C° 0 mm 3 mps 689 mmHg 53%

10 August, Monday

Time Temperature Precipitation Wind Pressure Humidity
00:00 +23°C° 0 mm 2 mps 689 mmHg 59%
01:00 +21°C° 0 mm 2 mps 689 mmHg 64%
02:00 +22°C° 0 mm 1 mps 688 mmHg 69%
03:00 +22°C° 0 mm 1 mps 688 mmHg 68%
04:00 +21°C° 0 mm 1 mps 688 mmHg 68%
05:00 +21°C° 0 mm 1 mps 688 mmHg 68%
06:00 +24°C° 0 mm 1 mps 689 mmHg 57%
07:00 +26°C° 0 mm 1 mps 689 mmHg 46%
08:00 +29°C° 0 mm 1 mps 690 mmHg 35%
09:00 +31°C° 0 mm 2 mps 690 mmHg 30%
10:00 +34°C° 0 mm 3 mps 691 mmHg 25%
11:00 +36°C° 0 mm 4 mps 691 mmHg 20%
12:00 +37°C° 0 mm 5 mps 691 mmHg 18%
13:00 +39°C° 0 mm 5 mps 690 mmHg 16%
14:00 +40°C° 0 mm 5 mps 690 mmHg 14%
15:00 +39°C° 0 mm 6 mps 690 mmHg 15%
16:00 +38°C° 0 mm 6 mps 690 mmHg 16%
17:00 +36°C° 0 mm 7 mps 690 mmHg 17%
18:00 +33°C° 0 mm 6 mps 690 mmHg 23%
19:00 +30°C° 0 mm 5 mps 690 mmHg 29%
20:00 +28°C° 0 mm 4 mps 690 mmHg 35%
21:00 +27°C° 0 mm 3 mps 690 mmHg 39%
22:00 +26°C° 0 mm 3 mps 690 mmHg 42%
23:00 +25°C° 0 mm 3 mps 690 mmHg 46%

11 August, Tuesday

Time Temperature Precipitation Wind Pressure Humidity
00:00 +24°C° 0 mm 2 mps 690 mmHg 53%
01:00 +23°C° 0 mm 2 mps 689 mmHg 61%
02:00 +21°C° 0 mm 2 mps 689 mmHg 68%
03:00 +21°C° 0 mm 2 mps 689 mmHg 69%
04:00 +21°C° 0 mm 1 mps 689 mmHg 70%
05:00 +21°C° 0 mm 1 mps 689 mmHg 72%
06:00 +24°C° 0 mm 1 mps 689 mmHg 59%
07:00 +27°C° 0 mm 2 mps 690 mmHg 47%
08:00 +29°C° 0 mm 2 mps 690 mmHg 34%
09:00 +31°C° 0 mm 3 mps 691 mmHg 29%
10:00 +34°C° 0 mm 4 mps 691 mmHg 24%
11:00 +35°C° 0 mm 5 mps 691 mmHg 19%
12:00 +36°C° 0 mm 6 mps 690 mmHg 18%
13:00 +38°C° 0 mm 6 mps 690 mmHg 16%
14:00 +38°C° 0 mm 7 mps 690 mmHg 15%
15:00 +38°C° 0 mm 7 mps 689 mmHg 16%
16:00 +36°C° 0 mm 7 mps 689 mmHg 18%
17:00 +35°C° 0 mm 7 mps 689 mmHg 20%
18:00 +32°C° 0 mm 6 mps 689 mmHg 34%
19:00 +28°C° 0 mm 5 mps 689 mmHg 48%
20:00 +26°C° 0 mm 5 mps 689 mmHg 63%
21:00 +25°C° 0 mm 4 mps 689 mmHg 67%
22:00 +24°C° 0 mm 3 mps 689 mmHg 71%
23:00 +22°C° 0 mm 3 mps 689 mmHg 76%

12 August, Wednesday

Time Temperature Precipitation Wind Pressure Humidity
00:00 +21°C° 0 mm 3 mps 688 mmHg 78%
01:00 +21°C° 0 mm 2 mps 688 mmHg 80%
02:00 +21°C° 0 mm 2 mps 688 mmHg 82%
03:00 +20°C° 0 mm 2 mps 687 mmHg 82%
04:00 +20°C° 0 mm 2 mps 687 mmHg 81%
05:00 +21°C° 0 mm 1 mps 687 mmHg 81%
06:00 +23°C° 0 mm 2 mps 688 mmHg 72%
07:00 +24°C° 0 mm 2 mps 688 mmHg 63%
08:00 +26°C° 0 mm 3 mps 688 mmHg 55%
09:00 +28°C° 0 mm 3 mps 688 mmHg 46%
10:00 +30°C° 0 mm 3 mps 688 mmHg 37%
11:00 +33°C° 0 mm 4 mps 689 mmHg 28%
12:00 +34°C° 0 mm 4 mps 688 mmHg 25%
13:00 +35°C° 0 mm 5 mps 688 mmHg 23%
14:00 +36°C° 0 mm 6 mps 688 mmHg 20%
15:00 +35°C° 0 mm 6 mps 688 mmHg 22%
16:00 +35°C° 0 mm 6 mps 688 mmHg 24%
17:00 +34°C° 0 mm 6 mps 688 mmHg 25%
18:00 +32°C° 0 mm 6 mps 688 mmHg 33%
19:00 +29°C° 0 mm 5 mps 688 mmHg 40%
20:00 +27°C° 0 mm 5 mps 688 mmHg 48%
21:00 +25°C° 0 mm 4 mps 688 mmHg 52%
22:00 +23°C° 0 mm 4 mps 688 mmHg 57%
23:00 +22°C° 0 mm 3 mps 688 mmHg 62%
Show more